Regional Weather Roundup
Issued by NWS

Home | Current Version | Previous Version | Text Only | Print | Product List | Glossary Off
Versions: 1 2 3 4 5 6 7 8 9 10 11 12 13 14 15 16 17 18 19 20 21 22 23 24 25 26 27 28 29 30 31 32 33 34 35 36 37 38 39 40 41 42 43 44 45 46 47 48 49 50

000
ASUS43 KMPX 241910
RWRMN
WEATHER ROUNDUP FOR MINNESOTA
NATIONAL WEATHER SERVICE TWIN CITIES/CHANHASSEN MN
200 PM CDT FRI APR 24 2015


NOTE: "FAIR" INDICATES FEW OR NO CLOUDS BELOW 12,000 FEET WITH NO
SIGNIFICANT WEATHER AND/OR OBSTRUCTIONS TO VISIBILITY. N/A MEANS
CURRENT SKY AND/OR WEATHER CONDITIONS ARE NOT AVAILABLE.

MNZ060>063-068>070-242000-
   Twin Cities Metro

CITY           SKY/WX    TMP DP  RH WIND       PRES   REMARKS
TWIN CITIES    CLOUDY    48  43  82 SE16      29.85F
ST PAUL        LGT RAIN  49  39  68 SE20G25   29.87F
CRYSTAL        CLOUDY    49  36  61 SE15G24   29.85F
BLAINE         CLOUDY    52  30  43 E10       29.86F
LAKEVILLE      CLOUDY    45  39  81 E14       29.84F
EDEN PRAIRIE   CLOUDY    47  41  80 SE17      29.83F
SOUTH ST PAUL  LGT RAIN  49  39  69 SE9G21    29.87F
LAKE ELMO      DRIZZLE   52  32  46 SE10      29.88F
$$
MNZ001>005-007-008-013>017-022>024-027-028-242000-
   Northwest Minnesota

CITY           SKY/WX    TMP DP  RH WIND       PRES   REMARKS
BEMIDJI        CLOUDY    42  32  68 E17G23    29.81F
HALLOCK        CLOUDY    54  34  47 SE16      29.79F
ROSEAU         CLOUDY    46  30  53 E12       29.85S
WARROAD        CLOUDY    43  30  61 E8        29.87S
THIEF RVR FALL CLOUDY    46  34  61 E18       29.80S
CROOKSTON      CLOUDY    50  37  62 SE14      29.77F
FOSSTON        PTSUNNY   48  36  61 SE17      29.77F
DETROIT LAKES  PTSUNNY   46  37  71 SE18G25   29.76S
MOORHEAD       PTSUNNY   52  39  62 SE17G23   29.72F
PARK RAPIDS    CLOUDY    47  34  60 SE16G23   29.79F
MAHNOMEN       CLOUDY    47  37  69 SE15      29.75F
$$
MNZ006-009>011-018-025>026-242000-
   North Central Minnesota

CITY           SKY/WX    TMP DP  RH WIND       PRES   REMARKS
BAUDETTE       CLOUDY    42  27  55 SE15G22   29.88S
FLAG ISLAND    CLOUDY    39  23  52 E9        29.89S
INTL FALLS     CLOUDY    40  21  46 E9        29.92F
WASKISH        CLOUDY    43  30  61 E9G17     29.87S
BIG FORK       DRIZZLE   43  32  65 SE7       29.90S
LONGVILLE      CLOUDY    39  32  75 E8        29.85S
GRAND RAPIDS   CLOUDY    41  28  60 SE13      29.89S
CRANE LAKE     CLOUDY    43  18  36 CALM      29.96S
ORR            CLOUDY    43  18  36 CALM      29.90F
COOK           CLOUDY    43  21  42 SE7       29.92F
WALKER         CLOUDY    41  32  70 E7        29.83S
$$
MNZ012-019>021-037-242000-
   Northeast Minnesota

CITY           SKY/WX    TMP DP  RH WIND       PRES   REMARKS
DULUTH         CLOUDY    38  29  70 E13       29.95F
ELY            CLOUDY    43  12  28 SE12      29.95S
HIBBING        CLOUDY    43  27  53 SE14G20   29.92F
EVELETH        PTSUNNY   43  23  45 SE12      29.93F
DULUTH HARBOR  CLOUDY    37  34  87 NE14      29.99S
TWO HARBORS    CLOUDY    43  27  52 E10       29.96F
SILVER BAY     CLOUDY    37  23  56 NE10G16   29.98F
GRAND MARAIS     N/A     39  22  50 NE10      30.05F
G MARAIS ARPRT PTSUNNY   37   9  30 SE6       30.01F
$$
MNZ029>031-032-039>041-046>048-054>057-064-242000-
   West Central Minnesota

CITY           SKY/WX    TMP DP  RH WIND       PRES   REMARKS
FERGUS FALLS   PTSUNNY   46  37  71 SE17G23   29.74F
WHEATON        PTSUNNY   52  45  76 E25G33    29.69F
MORRIS         PTSUNNY   52  45  76 SE25G33   29.69F
ALEXANDRIA     LGT RAIN  45  41  86 SE17G26   29.75F
ELBOW LAKE     CLOUDY    47  41  79 SE18G28   29.72F
WADENA         CLOUDY    46  37  71 SE17G24   29.77S
GLENWOOD       PTSUNNY   45  41  87 SE20G28   29.74F
APPLETON       MOSUNNY   57  43  58 SE21G29   29.69F
BENSON         MOSUNNY   52  41  66 SE21G26   29.71F
ORTONVILLE     MOSUNNY   55  45  67 SE21G30   29.66F
MADISON        MOSUNNY   57  43  58 E24       29.66F
WILLMAR        PTSUNNY   46  43  87 E21G28    29.75F
$$
MNZ033>034-036-042>043-049>051-058-059-242000-
   Central Minnesota

CITY           SKY/WX    TMP DP  RH WIND       PRES   REMARKS
ST CLOUD       LGT RAIN  40  38  93 SE13      29.80F FOG
SAUK CENTRE    CLOUDY    43  41  91 SE20G25   29.77S
PAYNESVILLE    CLOUDY    39  38  96 E20G31    29.77F
AITKIN         CLOUDY    43  34  70 E7        29.85S
PINE RIVER     CLOUDY    43  36  75 E12       29.86F
BRAINERD       CLOUDY    44  31  60 SE14G24   29.84F
STAPLES        CLOUDY    43  32  65 SE14G23   29.79F
LONG PRAIRIE   CLOUDY    39  37  93 E10G17    29.79F
LITTLE FALLS   CLOUDY    41  34  75 E12G18    29.82F
LITCHFIELD     CLOUDY    46  45  93 E14       29.80F
BUFFALO        CLOUDY    45  39  82 E10G18    29.84F
MAPLE LAKE     CLOUDY    44  41  89 E9        29.85S
$$
MNZ037-044-045-052-053-242000-
   East Central Minnesota

CITY           SKY/WX    TMP DP  RH WIND       PRES   REMARKS
PRINCETON      RAIN      43  37  81 E9        29.85F
MORA           LGT RAIN  41  32  70 E10       29.90S
CAMBRIDGE      LGT RAIN  46  36  66 SE5       29.86F
RUSH CITY      CLOUDY    44  36  74 SE7       29.90S
MOOSE LAKE     CLOUDY    37  32  81 E7        29.90F
HINCKLEY       CLOUDY    46  23  39 SE10      29.89F
CLOQUET        CLOUDY    37  34  87 E14G20    29.94S
MCGREGOR       CLOUDY    37  34  87 E13G18    29.89F
$$
MNZ071>073-080-081-089-090-097-098-242000-
   Southwest Minnesota

CITY           SKY/WX    TMP DP  RH WIND       PRES   REMARKS
MONTEVIDEO     PTSUNNY   54  45  71 S22G28    29.71F
GRANITE FALLS  CLOUDY    52  40  64 E23       29.72F
CANBY          PTSUNNY   63  43  48 SE17G24   29.64F
MARSHALL       PTSUNNY   55  39  54 SE15G22   29.67F
REDWOOD FALLS  CLOUDY    49  40  71 SE22G30   29.73S
OLIVIA         CLOUDY    46  36  66 SE16G22   29.73F
PIPESTONE      CLOUDY    57  48  72 SE14G22   29.63F
WINDOM         CLOUDY    48  43  81 SE14G23   29.71S
WORTHINGTON    CLOUDY    48  43  81 SE14G24   29.68F
JACKSON        LGT RAIN  45  41  87 SE20G25   29.72F
TRACY          CLOUDY    55  45  68 S13G21    29.69S
SLAYTON        CLOUDY    54  47  76 SE18G24   29.67S
$$
MNZ065>067-074>077-082>085-091>093-242000-
   South Central Minnesota

CITY           SKY/WX    TMP DP  RH WIND       PRES   REMARKS
MANKATO        CLOUDY    46  37  71 SE15      29.80S
NEW ULM        CLOUDY    46  37  71 SE18G24   29.75F
ST JAMES       CLOUDY    52  43  71 SE24G31   29.74F
FAIRMONT       CLOUDY    45  10  24 SE25      29.73F
GLENCOE        CLOUDY    48  41  79 E17G23    29.80F
FARIBAULT      CLOUDY    45  39  81 E9        29.84S
OWATONNA       CLOUDY    46  41  81 SE13G20   29.81S
WASECA         CLOUDY    45  39  81 SE18G26   29.81F
ALBERT LEA     CLOUDY    45  45 100 SE12G22   29.81F
$$
MNZ078>079-086>088-094>096-242000-
   Southeast Minnesota

CITY           SKY/WX    TMP DP  RH WIND       PRES   REMARKS
ROCHESTER      RAIN      44  37  76 SE22      29.84F
RED WING       CLOUDY    50  34  53 SE13G22   29.87F
STANTON        CLOUDY    48  38  68 SE8       29.84S
DODGE CENTER   LGT RAIN  45  39  81 SE25G35   29.81F
WINONA         CLOUDY    54  28  37 SE13      29.90F
AUSTIN         RAIN      43  39  87 SE14G28   29.83S
PRESTON        CLOUDY    44  34  66 SE16G25   29.87F
$$
ABBREVIATIONS USED IN REMARKS
   TC - TEMPERATURES IN CELSIUS
  WCI - WIND CHILL INDEX
   HX - HEAT INDEX
  VSB - VISIBILITY
$$


USA.gov is the U.S. government's official web portal to all federal, state and local government web resources and services.